Hourly Data Report for September 23, 2020

GIMLI CLIMATE
MANITOBA
Current Station Operator: ECCC - MSC

50°38'00.000" N
97°03'00.000" W
230.10 m
5031042
71748
PGH

Download Data

Hourly Data (September 2020)
Hourly Data Report for September 23, 2020
TIME Temp Definition
°C
Dew Point Definition
°C
Rel Hum Definition
%
Wind Dir Definition
10's deg

Wind Spd Definition
km/h
Visibility Definition
km
Stn Press Definition
kPa
Hmdx Definition


Wind Chill Definition


Weather Definition


00:00 13.5 9.8 79 35 25   98.71     LegendNANA
01:00 12.3 9.5 83 35 19   98.79     LegendNANA
02:00 11.4 9.1 86 36 17   98.85     LegendNANA
03:00 10.1 8.0 87 35 14   98.90     LegendNANA
04:00 9.2 7.1 87 33 12   98.98     LegendNANA
05:00 8.4 6.4 87 35 15   98.94     LegendNANA
06:00 6.9 5.3 89 34 11   99.01     LegendNANA
07:00 7.4 5.8 89 34 11   99.03     LegendNANA
08:00 9.9 7.2 83 32 9   99.11     LegendNANA
09:00 11.7 7.6 76 2 18   99.17     LegendNANA
10:00 12.2 7.6 73 2 19   99.20     LegendNANA
11:00 12.5 5.2 61 2 19   99.20     LegendNANA
12:00 11.8 7.0 73 2 18   99.11     LegendNANA
13:00 12.0 7.8 76 2 12   99.12     LegendNANA
14:00 12.6 6.6 67 2 19   99.04     LegendNANA
15:00 13.7 6.0 59 2 22   99.01     LegendNANA
16:00 13.4 5.6 59 1 17   99.04     LegendNANA
17:00 12.8 5.2 60 2 14   99.04     LegendNANA
18:00 11.3 5.8 69 1 7   99.04     LegendNANA
19:00 6.4 2.8 78 36 9   99.04     LegendNANA
20:00 6.4 4.5 88 36 6   99.03     LegendNANA
21:00 5.8 4.3 90 2 9   99.01     LegendNANA
22:00 5.2 3.7 90 36 5   98.99     LegendNANA
23:00 3.0 1.9 92 33 6   98.94     LegendNANA

Notes on Data Quality.

Legend

  • E = Estimated
  • M = Missing
  • NA = Not Available*
  • [empty] = Indicates an unobserved value
Date modified: